Location: Arclight Observatory
(36.5667°N, 87.3333°W)
Time: 04:56:30
(UTC-05:00)

Daily predictions for brighter satellites

Satellite Brightness Start Highest point End
(mag) Time Altitude Azimuth Time Altitude Azimuth Time Altitude Azimuth
CZ-4B R/B 4.0 00:17:43 21° N 00:17:43 21° N 00:19:02 10° N
Cosmos 1125 Rocket 4.1 00:22:54 52° WNW 00:22:54 52° WNW 00:27:56 10° N
Cosmos 1048 Rocket 4.3 00:22:10 10° NNW 00:26:43 65° NNW 00:26:43 65° NNW
In-Cosmos 22 Rocket 4.3 00:28:10 75° N 00:28:10 75° N 00:33:24 10° N
SeaSat 1 3.8 00:38:15 30° WNW 00:38:15 30° WNW 00:41:18 10° NW
NOSS 2-3 (C) 4.4 00:37:40 59° N 00:37:40 59° N 00:42:16 10° NNE
Cosmos 44 Rocket 4.1 00:39:15 52° NNE 00:39:15 52° NNE 00:43:11 10° NNE
Cosmos 2227 Rocket 4.2 00:39:32 16° W 00:42:01 21° WNW 00:46:17 10° N
ALOS 2 4.0 00:44:00 34° NW 00:44:00 34° NW 00:46:39 10° NNW
Cosmos 1733 Rocket 4.4 00:46:04 37° NNE 00:46:04 37° NNE 00:48:51 10° NNE
Cosmos 2333 Rocket 4.0 00:45:54 10° NW 00:49:11 21° W 00:49:11 21° W
Cosmos 2263 Rocket 4.1 00:51:58 18° E 00:51:58 18° E 00:54:48 10° ENE
Lacrosse 4 Rocket 3.1 00:48:28 10° NNW 00:50:55 32° NW 00:50:55 32° NW
Cosmos 2227 4.4 00:55:02 68° NNE 00:55:02 68° NNE 00:59:58 10° NNE
SL-16 R/B 2.8 00:51:06 10° NNW 00:55:32 47° WNW 00:55:32 47° WNW
BREEZE-M DEB (TANK) 4.2 00:51:51 10° NW 00:57:12 30° NNE 00:57:18 29° NNE
ASTEX 1 4.5 01:00:48 10° N 01:04:30 38° NW 01:04:30 38° NW
Nadezhda 3 Rocket 3.9 01:03:03 10° N 01:09:17 78° E 01:09:17 78° E
Cosmos 2297 Rocket 4.3 01:07:31 15° W 01:09:46 18° NW 01:13:36 10° NNW
CZ-3 Stage 3 3.8 00:42:23 10° W 01:09:53 59° SSW 01:09:53 59° SSW
CZ-2C R/B 3.6 01:11:35 60° ENE 01:11:39 60° ENE 01:17:16 10° N
CZ-4C R/B 3.8 01:13:57 10° NNW 01:20:43 43° NE 01:26:09 18° ESE
Meteor 2-6 Rocket 4.3 01:15:07 10° N 01:20:38 81° N 01:20:38 81° N
Cosmos 1943 4.3 01:17:07 10° N 01:22:23 37° ENE 01:23:36 33° E
CZ-2C R/B 3.0 01:19:05 10° N 01:23:38 56° NW 01:23:38 56° NW
COSMOS 2455 4.1 01:21:26 10° NW 01:25:14 29° W 01:25:14 29° W
Cosmos 2251 Rocket 4.1 01:22:13 10° NNW 01:26:18 50° NW 01:26:18 50° NW
Meteor 2-10 Rocket 4.3 01:24:23 10° NNW 01:28:58 46° WNW 01:28:58 46° WNW
Cosmos 1603 3.9 01:24:27 10° NNW 01:29:23 66° NW 01:29:23 66° NW
Cosmos 2154 Rocket 4.2 01:32:33 57° W 01:32:42 57° W 01:38:54 10° N
MOS 1-B Rocket 4.4 01:38:15 46° WNW 01:38:15 46° WNW 01:42:59 10° NNW
Cosmos 1975 Rocket 4.1 01:39:58 10° N 01:43:12 44° NNE 01:43:12 44° NNE
Cosmos 1607 3.8 01:41:51 10° NNW 01:48:01 82° ENE 01:48:31 75° ESE
Cosmos 1295 Rocket 4.4 01:50:11 74° WSW 01:50:28 75° W 01:56:49 10° N
ATLAS 3B R/B 3.9 01:45:22 10° NW 01:49:26 26° W 01:49:26 26° W
Cosmos 44 4.1 01:53:21 49° WNW 01:53:24 49° NW 01:58:41 10° NNE
USA 238 DEB 3.7 01:46:36 10° NW 01:53:33 64° WSW 01:53:37 64° WSW
USA 238 3.7 01:46:42 10° NW 01:53:39 65° WSW 01:53:45 65° WSW
NPP 4.4 02:01:21 10° NNE 02:06:27 42° E 02:06:52 41° ESE
Cosmos 2151 Rocket 4.4 02:07:47 46° ENE 02:07:47 46° ENE 02:11:30 10° NNE
SL-08 R/B 4.3 02:07:43 74° SW 02:08:16 81° W 02:14:33 10° N
BREEZE-M TANK 4.3 02:05:18 10° NW 02:08:40 23° N 02:10:52 10° ENE
Iridium 4 Rocket 3.9 02:07:50 10° N 02:12:22 50° E 02:12:32 50° E
USA 234 3.5 02:06:36 10° ESE 02:13:03 66° NE 02:19:32 10° NW
RESURS DK-1 3.3 02:14:33 45° NE 02:14:33 45° NE 02:17:37 10° NNE
Cosmos 1825 4.2 02:17:09 23° NW 02:17:09 23° NW 02:19:01 10° NNW
ERS-2 3.8 02:16:56 10° NNE 02:19:28 31° ENE 02:19:28 31° ENE
CBERS-1 4.4 02:19:48 10° NNE 02:24:49 51° E 02:25:21 49° ESE
SL-8 Rocket 4.4 02:24:55 45° W 02:25:36 46° W 02:31:40 10° N
NOSS 3-2 (C) 4.1 02:19:50 10° NNW 02:27:29 79° ENE 02:34:29 15° SE
Cosmos 2218 Rocket 4.2 02:28:46 50° WSW 02:29:30 52° W 02:35:39 10° N
CZ-2D R/B 4.3 02:28:00 10° NE 02:31:31 17° E 02:34:28 12° SE
Cosmos 1844 Rocket 4.0 02:31:31 26° SE 02:32:58 30° ESE 02:37:49 10° NE
Cosmos 2263 Rocket 2.5 02:33:39 49° W 02:34:22 52° WNW 02:39:55 10° NNE
Meteor 1-25 Rocket 4.4 02:35:22 54° SSE 02:36:31 69° E 02:42:14 10° NNE
GP-B 3.9 02:32:18 10° NNE 02:36:33 42° E 02:37:07 40° ESE
Cosmos 1339 Rocket 4.3 02:30:28 10° N 02:36:34 88° W 02:37:57 57° S
SL-24 DEB 4.4 02:33:29 10° NNE 02:38:05 62° E 02:38:27 60° ESE
COSMOS 2406 4.3 02:36:06 10° N 02:41:34 42° ENE 02:46:59 10° SE
SL-08 R/B 3.4 02:41:41 59° SE 02:42:34 76° ENE 02:47:30 10° N
Meteor 1-14 Rocket 4.4 02:42:48 53° WSW 02:43:42 59° W 02:49:33 10° N
Cosmos 1190 Rocket 4.5 02:39:51 10° N 02:45:00 57° ENE 02:47:22 30° SE
NOSS 3-4 (A) 4.3 02:44:56 33° W 02:47:07 43° NW 02:53:21 10° NNE
NOSS 3-4 (C) 4.2 02:45:02 33° W 02:47:12 44° NW 02:53:27 10° NNE
Cosmos 2366 rocket 4.5 02:46:32 40° W 02:47:26 42° WNW 02:53:17 10° N
Cosmos 1371 Rocket 4.4 02:47:23 48° W 02:47:59 51° WNW 02:53:14 10° N
Cosmos 2056 Rocket 3.5 02:48:43 61° WSW 02:49:23 68° WNW 02:54:39 10° NNE
Cosmos 2278 Rocket 4.2 02:46:40 14° SE 02:49:30 19° E 02:53:25 10° NE
IRS-1C 4.1 02:46:47 10° NNE 02:52:09 77° ESE 02:53:23 54° S
NOSS 3-2 (A) 4.0 02:44:51 10° NW 02:52:23 64° WSW 02:56:22 32° S
Spot 4 Rocket 4.3 02:52:38 10° NNE 02:57:45 61° E 02:59:15 43° SSE
Tiangong 1 2.8 02:59:17 31° ENE 02:59:17 31° ENE 03:01:17 10° E
Cosmos 407 Rocket 3.7 02:57:39 10° NNW 03:02:48 67° ENE 03:05:49 25° SSE
Cosmos 967 Rocket 4.5 03:01:25 44° SSW 03:03:37 80° ESE 03:10:07 10° NNE
AQUA 3.9 03:00:43 10° N 03:05:24 60° WNW 03:06:03 54° WSW
Cosmos 1943 4.4 03:01:32 10° NW 03:05:21 26° W 03:05:21 26° W
CZ-4C R/B 3.3 03:02:33 10° NW 03:09:22 42° WSW 03:11:13 36° SW
SL-27 R/B 3.1 03:09:10 10° N 03:12:46 54° ENE 03:13:49 38° SE
Meteor 1-18 Rocket 4.3 03:09:49 10° NNW 03:15:21 57° W 03:16:56 42° SW
USA 161 2.4 03:16:08 46° NNE 03:16:08 46° NNE 03:18:22 10° N
Meteor 2-21 4.3 03:13:34 37° S 03:16:09 89° WNW 03:22:16 10° N
Gbstr 26 Del rocket 2.7 03:16:43 61° SSE 03:16:56 62° SE 03:20:40 10° NE
IRS-1D 3.8 03:13:41 10° NNE 03:18:42 59° E 03:20:59 31° SSE
OTV 4 2.2 03:22:22 25° ESE 03:22:22 25° ESE 03:23:47 10° ESE
H-2A R/B 3.9 03:18:33 31° SW 03:20:54 35° S 03:48:40 10° SE
Cosmos 1867 3.9 03:17:52 10° NW 03:23:04 44° WSW 03:23:55 41° SW
Resurs 1-4 Rocket 2.6 03:18:07 10° NNE 03:23:20 54° E 03:26:22 24° SSE
Cosmos 1300 Rocket 3.7 03:23:44 47° WSW 03:24:17 51° W 03:28:32 10° N
BREEZE-M DEB (TANK) 4.1 03:23:43 10° WNW 03:28:18 32° W 03:28:18 32° W
Skynet4D Del rocket 4.5 03:34:27 27° S 03:34:50 27° S 03:39:29 10° ESE
NOSS 2-2 (E) 3.5 03:35:27 41° SSW 03:36:50 74° ESE 03:41:29 10° NE
Cosmos 1954 Rocket 4.0 03:31:45 10° NNW 03:36:56 78° ENE 03:42:06 10° SSE
Meteor 1-11 Rocket 3.8 03:35:08 28° S 03:38:27 86° W 03:44:28 10° N
Cosmos 1633 3.1 03:37:17 30° SSE 03:38:46 53° E 03:42:18 10° NNE
EO 1 Del DPAF 3.4 03:36:39 23° SSE 03:39:00 73° ENE 03:42:54 10° N
Cosmos 1934 Rocket 4.0 03:39:43 28° SSW 03:43:04 64° W 03:49:14 10° N
SME Rocket 3.3 03:40:12 11° SSE 03:43:44 62° ENE 03:47:35 10° N
Meteor 1-13 Rocket 4.2 03:41:36 10° NNW 03:47:16 71° W 03:51:41 18° S
Okean 1 4.2 03:44:34 10° NNW 03:48:05 30° W 03:48:23 30° W
Cosmos 1812 4.0 03:46:43 10° NW 03:49:48 24° W 03:49:48 24° W
ADEOS 4.4 03:45:22 10° N 03:50:04 35° WNW 03:52:17 24° WSW
Cosmos 1356 4.0 03:48:44 25° SSE 03:50:35 56° E 03:54:05 10° NNE
SL-16 R/B 2.5 03:44:21 10° SSE 03:50:37 81° WSW 03:56:53 10° NNW
Okean 1-7 Rocket 4.2 03:47:07 10° NNW 03:51:23 40° W 03:52:54 30° SW
Cosmos 1400 Rocket 3.1 03:49:37 23° S 03:51:53 63° E 03:55:45 10° NNE
ERS-2 4.4 03:52:08 10° NW 03:53:49 13° WNW 03:54:19 13° WNW
Cosmos 1452 Rocket 4.2 03:53:20 25° WSW 03:55:42 39° WNW 04:00:37 10° N
ARIANE 5 R/B 2.8 03:51:13 10° N 03:56:02 51° WNW 03:58:39 26° SW
USA 234 3.9 03:50:41 10° S 03:56:16 30° SW 04:01:54 10° WNW
Hubble Space Telescope 2.9 03:58:17 12° SSE 03:58:17 12° SSE 03:58:57 10° SSE
Yuri Rocket 4.2 03:56:53 26° SW 03:58:41 32° S 04:02:47 10° ESE
MTI 3.9 03:58:10 16° SSE 04:00:41 81° ENE 04:03:59 10° N
COSMOS 2487 3.1 03:57:07 10° N 04:00:42 57° ENE 04:04:14 10° SSE
Okean 1 Rocket 4.5 04:00:25 20° W 04:01:37 23° WNW 04:05:08 10° NNW
Okean O Rocket 2.2 03:59:52 10° NNE 04:04:07 53° E 04:08:10 11° S
Cosmos 1420 Rocket 4.2 04:05:25 22° SW 04:08:46 60° WNW 04:14:02 10° N
Meteor 1-23 Rocket 4.2 04:05:43 10° N 04:11:28 88° W 04:17:07 10° S
CZ-2D R/B 2.4 04:06:34 10° N 04:11:52 54° WNW 04:15:48 18° SW
Cosmos 1605 Rocket 4.2 04:08:49 19° SSW 04:13:10 52° W 04:19:15 10° N
Cosmos 1315 Rocket 3.0 04:12:24 12° S 04:16:06 73° E 04:20:10 10° NNE
ATLAS 2A CENTAUR R/B 4.4 04:09:15 16° WSW 04:16:09 48° S 05:06:53 10° ESE
Cosmos 1844 Rocket 3.6 04:13:11 18° WSW 04:16:42 34° WNW 04:21:51 10° N
Cosmos 1844 4.2 04:14:16 19° SW 04:18:03 45° WNW 04:23:33 10° N
Okean 2 3.4 04:14:13 10° N 04:18:19 87° ENE 04:22:26 10° S
Cosmos 1023 Rocket 4.4 04:13:26 10° NNW 04:18:28 65° WSW 04:23:29 10° S
Chunghua 1 4.5 04:15:59 17° W 04:18:46 68° S 04:22:29 10° E
Cosmos 2123 Rocket 4.4 04:12:57 10° NNW 04:18:55 45° W 04:24:37 11° SSW
CENTAUR R/B 3.1 04:12:28 10° NW 04:20:25 74° WSW 04:28:41 10° SSE
CZ-2D R/B 3.4 04:17:16 10° N 04:21:15 68° WNW 04:24:31 15° SSW
COSMOS 2406 4.3 04:21:03 10° NW 04:25:35 24° W 04:29:18 13° SSW
Cosmos 1455 Rocket 3.1 04:24:32 13° SSW 04:28:29 64° W 04:32:55 10° N
Cosmos 1975 3.8 04:25:14 10° SSE 04:29:04 46° E 04:32:54 10° NNE
Cosmos 2297 3.9 04:23:55 10° SSW 04:29:31 75° ESE 04:35:13 10° NNE
Cosmos 1461 3.4 04:26:05 17° SW 04:29:41 59° WNW 04:34:17 10° NNE
Cosmos 1626 Rocket 4.4 04:26:39 10° N 04:30:56 52° E 04:35:13 10° SSE
Cosmos 2278 Rocket 2.6 04:28:32 15° SW 04:33:07 51° WNW 04:38:38 10° NNE
Meteor 1-5 Rocket 4.4 04:28:43 10° SSW 04:34:37 69° W 04:40:25 10° N
Tiangong 1 1.6 04:32:05 10° W 04:34:54 33° SSW 04:37:43 10° SE
Cosmos 1140 Rocket 3.9 04:33:08 10° NNW 04:37:57 41° WSW 04:42:42 10° S
MOZ.5/SAFIR/RUBIN 5/SL-8 3.9 04:34:12 10° SSE 04:38:58 86° ENE 04:43:47 10° N
UNK 4.0 04:32:03 10° WSW 04:39:24 42° NW 04:42:10 10° NE
Cosmos 1025 Rocket 4.2 04:36:13 10° NW 04:39:38 24° W 04:42:47 11° SW
Cosmos 1850 Rocket 4.2 04:36:17 10° NNW 04:41:21 52° WSW 04:46:27 10° S
Cosmos 1741 Rocket 4.1 04:36:48 10° NNW 04:41:56 54° WSW 04:47:01 10° S
ATLAS 5 CENTAUR R/B 2.7 04:41:15 10° NNW 04:47:20 75° ENE 04:53:46 10° SE
CZ-4B R/B 3.4 04:44:26 10° N 04:50:04 68° WNW 04:55:41 10° SSW
BREEZE M DEB (TANK) 4.5 04:29:33 10° NW 04:50:28 55° WSW 04:55:26 10° SSE
Cosmos 2173 Rocket 4.0 04:45:25 10° SSW 04:51:26 67° W 04:57:34 10° N
APEX 2.4 04:49:03 10° SSW 04:51:48 89° E 04:54:54 10° NNE
Meteor 2-4 Rocket 4.3 04:47:27 10° NNW 04:52:15 33° W 04:56:59 10° SSW
Cosmos 1802 Rocket 4.0 04:46:21 10° S 04:52:31 76° W 04:58:40 10° N
Cosmos 2082 Rocket 2.9 04:48:30 10° NNW 04:54:11 62° ENE 04:59:48 10° SSE
OTV 4 1.8 04:54:38 10° W 04:56:58 21° SSW 04:59:17 10° SSE
Resurs 1-4 Rocket 3.8 04:59:16 10° NNW 05:02:42 18° WNW 05:06:07 10° WSW
Cosmos 2098 Rocket 4.1 05:00:19 10° SSE 05:03:16 37° E 05:06:48 10° NNE
Cosmos 2100 Rocket 4.4 05:00:52 10° SSW 05:06:47 45° W 05:12:48 10° N
BREEZE M DEB (TANK) 4.2 05:00:11 10° NW 05:12:42 58° SW 05:16:31 10° SSE
